CAPE
0 0 0 0 0 0 0 0 0 0 0 0 0 0 0 0 0 0 0 0 0 0 0 0 19 0 5 0 20 61 29 100 26 83 1 0 9 11 125 160 95 230 399 562 699
0 0 0 0 0 0 0 0 0 0 0 0 0 0 0 0 0 0 0 0 0 0 0 0 0 0 0 0 10 12 1 65 31 63 15 3 7 7 3 72 195 250 432 539 655
1 1 0 0 0 0 0 0 0 0 0 0 0 0 0 0 0 0 0 0 0 0 0 0 0 0 0 0 0 2 15 8 34 17 102 0 32 10 30 0 144 275 369 429 585
1 1 0 0 0 0 0 0 0 0 0 0 0 0 0 0 0 0 0 0 0 0 0 0 0 0 0 0 0 0 2 0 29 10 50 49 69 20 7 51 41 238 330 387 561
1 0 0 0 0 0 0 0 0 0 0 0 0 0 0 0 0 0 0 0 0 0 0 0 0 0 0 0 0 0 1 0 0 0 19 89 77 40 6 4 35 283 310 352 494
0 0 0 0 0 0 0 0 0 0 0 0 0 0 0 0 0 0 0 0 0 0 0 0 0 0 0 0 0 0 0 0 0 0 4 76 68 59 6 0 105 385 352 359 423
0 0 0 0 0 0 0 0 0 0 0 0 0 0 0 0 0 0 0 0 0 0 0 0 0 0 0 0 0 0 0 0 0 0 2 21 8 3 0 94 196 364 370 242 316
0 0 0 0 0 0 0 0 0 0 0 0 0 0 0 0 0 0 0 0 0 0 0 0 0 0 0 0 0 0 0 36 2 0 7 24 32 0 79 77 171 230 362 241 260
0 0 0 0 0 0 0 0 0 0 0 0 0 0 0 0 0 0 0 0 0 0 0 0 0 0 0 0 0 0 0 3 0 0 34 7 0 26 135 50 28 141 166 264 269
0 0 0 0 0 0 0 0 0 0 0 0 0 0 0 0 0 0 0 0 0 0 0 0 0 0 0 0 0 0 2 43 75 0 81 19 191 144 256 134 19 33 26 96 154
0 0 0 0 0 0 0 0 0 0 0 0 0 0 0 0 0 0 0 0 0 0 0 0 0 0 0 0 0 3 38 0 36 8 39 64 97 120 334 302 122 84 27 15 35
0 0 0 0 0 0 0 0 0 0 0 0 0 0 0 0 0 0 0 0 0 0 0 0 0 0 0 0 0 0 12 29 13 25 4 90 116 167 338 307 326 247 125 57 25
0 0 0 0 0 0 0 0 0 0 0 0 0 0 0 0 0 0 0 0 0 0 0 0 0 0 0 0 0 0 0 18 43 87 40 80 43 110 120 302 332 244 315 177 49
0 0 0 0 0 0 0 0 0 0 0 0 0 0 0 0 0 0 0 0 0 0 0 0 0 0 0 0 0 0 0 1 34 31 56 3 85 65 48 77 205 411 317 366 108
0 0 0 0 0 0 0 0 0 0 0 0 0 0 0 0 0 0 0 0 0 0 0 0 0 0 0 0 0 0 0 2 12 78 82 39 51 14 7 40 50 203 429 400 200
0 0 0 0 0 0 0 0 0 0 0 0 0 0 0 0 0 0 0 0 0 0 0 0 0 0 0 0 0 0 0 6 9 29 39 92 68 82 9 42 95 89 197 474 441
0 0 0 0 0 0 0 0 0 0 0 0 0 0 0 0 0 0 0 0 0 0 0 0 0 0 0 0 0 0 0 0 5 16 12 52 74 64 62 44 31 35 62 197 512
0 0 0 0 0 0 0 0 0 0 0 0 0 0 0 0 0 0 0 0 0 0 0 0 0 0 0 0 0 0 0 0 0 10 11 10 31 28 41 27 41 26 18 51 286
0 0 0 0 0 0 0 0 0 0 0 0 0 0 0 0 0 0 0 0 0 0 0 0 0 0 0 0 0 0 0 0 1 25 30 24 16 12 21 64 48 18 6 10 131
0 0 0 0 0 0 0 0 0 0 0 0 0 0 0 0 0 0 0 0 0 0 0 0 0 0 0 0 0 0 0 0 0 7 27 22 25 15 16 10 2 8 0 1 43
0 0 0 0 0 0 0 0 0 0 0 0 0 0 0 0 0 0 0 0 0 0 0 0 0 0 0 0 0 0 0 0 0 1 11 32 36 24 23 6 0 0 0 3 17
0 0 0 0 0 0 0 0 0 0 0 0 0 0 0 0 0 0 0 0 0 0 0 0 0 0 0 0 0 0 0 0 0 0 0 15 30 18 0 1 1 9 6 20 7
0 0 0 0 0 0 0 0 0 0 0 0 0 0 0 0 0 0 0 0 0 0 0 0 0 0 0 0 0 0 0 0 0 0 0 7 0 0 1 15 11 10 0 0 29
7 1 1 0 0 0 0 0 0 0 0 0 0 0 0 0 0 0 0 0 0 0 0 0 0 0 0 0 0 0 0 0 0 0 0 0 14 28 10 2 2 0 0 0 0
20 5 11 16 30 1 0 10 1 0 0 0 0 0 0 0 0 0 0 0 0 0 0 0 0 0 0 0 0 0 0 0 0 0 0 0 7 14 23 26 2 0 0 0 0
16 29 28 4 37 0 0 0 0 0 0 0 0 0 0 0 0 0 0 0 0 0 0 0 0 0 0 0 0 0 0 0 0 0 0 0 0 0 3 4 11 0 0 0 0
28 35 24 4 29 47 1 0 0 0 3 0 0 0 4 1 0 0 8 0 0 1 0 0 0 0 0 2 37 23 0 0 0 0 0 0 0 0 0 0 1 0 0 0 0
CIN
-0 -0 -0 -0 -0 -0 -0 -0 -0 -0 -0 -0 -0 -0 -0 -0 -0 -0 -0 -0 -0 -0 -0 -0 -146 -0 -82 -0 -75 -12 -65 -10 -7 -9 -3 -0 -1 -1 -2 -9 -4 -6 -4 -3 -10
-0 -0 -0 -0 -0 -0 -0 -0 -0 -0 -0 -0 -0 -0 -0 -0 -0 -0 -0 -0 -0 -0 -0 -0 -0 -0 -0 -0 -22 -4 -10 -20 -7 -7 -19 -0 -3 -2 -1 -11 -2 -3 -4 -25 -22
-0 -0 -0 -0 -0 -0 -0 -0 -0 -0 -0 -0 -0 -0 -0 -0 -0 -0 -0 -0 -0 -0 -0 -0 -0 -0 -0 -0 -0 -5 -19 -36 -4 -5 -12 -0 -3 -1 -2 -0 -1 -3 -18 -46 -21
-0 -0 -0 -0 -0 -0 -0 -0 -0 -0 -0 -0 -0 -0 -0 -0 -0 -0 -0 -0 -0 -0 -0 -0 -0 -0 -0 -0 -0 -0 -5 -4 -7 -5 -3 -3 -4 -1 -1 -2 -8 -4 -24 -54 -21
-0 -0 -0 -0 -0 -0 -0 -0 -0 -0 -0 -0 -0 -0 -0 -0 -0 -0 -0 -0 -0 -0 -0 -0 -0 -0 -0 -0 -0 -0 -3 -0 -0 -1 -4 -4 -3 -3 -2 -2 -16 -11 -40 -57 -33
-0 -0 -0 -0 -0 -0 -0 -0 -0 -0 -0 -0 -0 -0 -0 -0 -0 -0 -0 -0 -0 -0 -0 -0 -0 -0 -0 -0 -0 -0 -0 -0 -0 -0 -2 -4 -5 -3 -1 -0 -18 -36 -51 -56 -51
-0 -0 -0 -0 -0 -0 -0 -0 -0 -0 -0 -0 -0 -0 -0 -0 -0 -0 -0 -0 -0 -0 -0 -0 -0 -0 -0 -0 -0 -0 -0 -0 -0 -0 -2 -3 -0 -3 -0 -6 -16 -27 -53 -54 -57
-0 -0 -0 -0 -0 -0 -0 -0 -0 -0 -0 -0 -0 -0 -0 -0 -0 -0 -0 -0 -0 -0 -0 -0 -0 -0 -0 -0 -0 -0 -0 -4 -1 -0 -4 -32 -3 -0 -7 -15 -1 -18 -42 -51 -60
-0 -0 -0 -0 -0 -0 -0 -0 -0 -0 -0 -0 -0 -0 -0 -0 -0 -0 -0 -0 -0 -0 -0 -0 -0 -0 -0 -0 -0 -0 -0 -5 -8 -0 -3 -26 -0 -18 -30 -23 -12 -6 -19 -37 -62
-0 -0 -0 -0 -0 -0 -0 -0 -0 -0 -0 -0 -0 -0 -0 -0 -0 -0 -0 -0 -0 -0 -0 -0 -0 -0 -0 -0 -0 -0 -6 -7 -7 -0 -2 -22 -4 -12 -6 -4 -41 -30 -28 -25 -43
-0 -0 -0 -0 -0 -0 -0 -0 -0 -0 -0 -0 -0 -0 -0 -0 -0 -0 -0 -0 -0 -0 -0 -0 -0 -0 -0 -0 -0 -4 -8 -17 -13 -13 -6 -6 -4 -6 -3 -2 -6 -14 -85 -86 -56
-0 -0 -0 -0 -0 -0 -0 -0 -0 -0 -0 -0 -0 -0 -0 -0 -0 -0 -0 -0 -0 -0 -0 -0 -0 -0 -0 -0 -0 -0 -10 -6 -13 -17 -3 -5 -6 -8 -9 -10 -2 -2 -29 -76 -98
-0 -0 -0 -0 -0 -0 -0 -0 -0 -0 -0 -0 -0 -0 -0 -0 -0 -0 -0 -0 -0 -0 -0 -0 -0 -0 -0 -0 -0 -0 -0 -7 -9 -11 -18 -5 -9 -9 -7 -5 -18 -11 -6 -30 -91
-0 -0 -0 -0 -0 -0 -0 -0 -0 -0 -0 -0 -0 -0 -0 -0 -0 -0 -0 -0 -0 -0 -0 -0 -0 -0 -0 -0 -0 -0 -0 -2 -7 -17 -8 -4 -5 -7 -6 -4 -9 -18 -25 -25 -58
-0 -0 -0 -0 -0 -0 -0 -0 -0 -0 -0 -0 -0 -0 -0 -0 -0 -0 -0 -0 -0 -0 -0 -0 -0 -0 -0 -0 -0 -0 -0 -3 -9 -6 -11 -9 -8 -20 -21 -7 -8 -7 -17 -34 -39
-0 -0 -0 -0 -0 -0 -0 -0 -0 -0 -0 -0 -0 -0 -0 -0 -0 -0 -0 -0 -0 -0 -0 -0 -0 -0 -0 -0 -0 -0 -0 -5 -5 -11 -9 -7 -6 -8 -67 -6 -4 -5 -7 -19 -35
-0 -0 -0 -0 -0 -0 -0 -0 -0 -0 -0 -0 -0 -0 -0 -0 -0 -0 -0 -0 -0 -0 -0 -0 -0 -0 -0 -0 -0 -0 -0 -1 -7 -9 -8 -11 -8 -4 -8 -4 -17 -5 -4 -10 -34
-0 -0 -0 -0 -0 -0 -0 -0 -0 -0 -0 -0 -0 -0 -0 -0 -0 -0 -0 -0 -0 -0 -0 -0 -0 -0 -0 -0 -0 -0 -0 -0 -0 -4 -7 -9 -9 -11 -17 -3 -8 -7 -3 -2 -14
-0 -0 -0 -0 -0 -0 -0 -0 -0 -0 -0 -0 -0 -0 -0 -0 -0 -0 -0 -0 -0 -0 -0 -0 -0 -0 -0 -0 -0 -0 -0 -0 -5 -11 -7 -7 -8 -31 -9 -8 -8 -3 -4 -5 -13
-0 -0 -0 -0 -0 -0 -0 -0 -0 -0 -0 -0 -0 -0 -0 -0 -0 -0 -0 -0 -0 -0 -0 -0 -0 -0 -0 -0 -0 -0 -0 -0 -0 -5 -7 -13 -11 -11 -3 -13 -3 -7 -0 -3 -3
-0 -0 -0 -0 -0 -0 -0 -0 -0 -0 -0 -0 -0 -0 -0 -0 -0 -0 -0 -0 -0 -0 -0 -0 -0 -0 -0 -0 -0 -0 -0 -0 -0 -7 -8 -10 -12 -10 -7 -11 -0 -0 -0 -3 -3
-0 -0 -0 -0 -0 -0 -0 -0 -0 -0 -0 -0 -0 -0 -0 -0 -0 -0 -0 -0 -0 -0 -0 -0 -0 -0 -0 -0 -0 -0 -0 -0 -0 -0 -4 -9 -11 -53 -33 -23 -5 -2 -8 -9 -5
-0 -0 -0 -0 -0 -0 -0 -0 -0 -0 -0 -0 -0 -0 -0 -0 -0 -0 -0 -0 -0 -0 -0 -0 -0 -0 -0 -0 -0 -0 -0 -0 -0 -0 -0 -6 -0 -0 -40 -9 -8 -6 -0 -0 -1
-2 -1 -3 -0 -0 -0 -0 -0 -0 -0 -0 -0 -0 -0 -0 -0 -0 -0 -0 -0 -0 -0 -0 -0 -0 -0 -0 -0 -0 -0 -0 -0 -0 -0 -0 -0 -7 -12 -4 -2 -4 -0 -0 -0 -0
-2 -4 -6 -7 -12 -24 -0 -15 -5 -0 -0 -0 -0 -0 -0 -0 -0 -0 -0 -0 -0 -0 -0 -0 -0 -0 -0 -0 -2 -0 -0 -0 -0 -0 -0 -0 -9 -10 -10 -17 -5 -0 -0 -0 -0
-0 -0 -2 -3 -5 -0 -0 -7 -0 -0 -0 -0 -0 -0 -0 -0 -0 -0 -0 -0 -0 -0 -0 -0 -0 -0 -0 -0 -0 -0 -4 -0 -0 -0 -0 -0 -0 -12 -9 -35 -11 -0 -0 -0 -0
-3 -4 -2 -5 -6 -7 -3 -0 -0 -4 -3 -0 -0 -0 -63 -13 -0 -0 -37 -0 -0 -8 -0 -0 -1 -0 -0 -2 -7 -9 -0 -0 -0 -0 -0 -0 -0 -0 -0 -0 -6 -0 -0 -0 -0
Wind_Speed
24 24 23 26 27 28 28 27 27 29 30 30 29 28 28 28 28 10 25 29 26 28 27 27 29 26 25 23 23 20 16 11 11 14 15 13 14 12 11 11 11 8 10 17 17
28 28 27 25 26 27 28 28 28 27 28 30 30 29 29 29 25 25 28 22 29 27 31 32 28 29 26 24 23 12 10 14 12 13 14 12 12 12 13 13 11 7 14 19 18
29 29 29 29 26 24 24 27 28 28 28 28 30 30 29 28 24 21 11 11 17 24 36 34 32 30 27 26 25 21 14 15 14 15 8 10 10 10 10 10 12 12 16 21 21
30 30 30 30 30 29 26 24 23 27 28 28 27 29 29 24 18 12 10 8 5 21 35 33 35 28 26 25 24 23 22 18 17 13 14 11 10 9 7 8 12 14 18 22 21
31 31 31 31 31 30 30 29 26 23 24 27 27 28 26 22 28 8 10 12 5 34 34 34 34 32 29 24 23 22 23 22 18 8 10 12 10 8 6 7 10 13 20 25 23
32 32 32 32 32 31 32 31 29 26 23 19 18 22 17 29 27 9 15 5 5 25 36 40 33 36 35 29 28 16 20 23 21 6 7 12 10 6 5 5 9 14 21 27 29
34 34 34 33 34 33 34 33 32 29 26 17 2 7 15 7 15 13 9 10 3 10 32 40 40 28 35 32 31 29 26 5 6 6 7 15 12 18 9 6 10 16 22 27 31
36 36 36 35 35 34 34 33 32 29 20 14 7 7 18 10 3 5 13 24 22 25 36 34 37 37 35 34 33 27 26 23 5 6 4 27 16 14 10 15 12 22 28 29 31
38 37 37 37 38 37 35 33 30 18 16 11 10 8 9 10 5 3 6 13 15 17 18 32 25 34 31 30 28 23 22 25 4 6 4 27 16 12 10 17 19 26 30 31 31
39 40 40 39 38 39 37 33 19 14 10 9 12 13 6 5 6 7 2 3 9 11 10 9 12 24 29 25 25 22 20 19 8 7 3 27 12 6 10 19 19 23 27 31 32
39 40 41 41 41 38 34 21 18 14 4 4 12 3 12 6 7 5 4 3 3 10 13 12 15 29 27 29 28 26 18 16 6 9 18 19 30 3 3 23 23 20 26 26 29
41 42 42 42 41 35 26 23 22 24 27 8 17 19 14 9 5 2 2 4 6 10 14 15 22 22 26 25 23 27 28 19 13 7 15 14 22 5 5 24 26 23 23 26 26
43 42 43 44 40 26 27 22 21 29 20 22 13 15 14 12 14 7 8 7 8 11 14 19 18 17 18 19 20 24 30 16 12 8 11 29 34 15 13 5 18 21 20 21 25
44 44 43 45 27 32 22 20 24 26 24 19 9 11 6 6 13 17 17 12 9 11 13 19 19 20 27 24 20 20 25 36 10 12 32 12 38 14 10 12 8 14 17 17 18
44 45 42 38 32 24 24 26 26 20 25 13 7 6 4 7 9 6 14 18 14 10 13 16 18 21 26 25 24 20 16 14 32 14 14 15 35 36 11 10 10 9 12 15 14
45 45 44 33 20 22 27 22 21 21 23 16 11 8 5 9 11 6 7 15 13 14 14 15 12 20 27 33 35 37 32 33 29 37 47 42 20 42 15 12 10 6 8 11 12
46 47 43 31 20 20 23 20 22 25 18 16 14 13 12 11 13 11 10 15 17 16 18 16 19 17 23 29 37 38 33 40 45 36 53 31 22 25 10 11 11 13 6 10 14
46 48 32 22 21 23 18 17 30 22 22 17 15 16 17 17 15 15 17 18 21 18 18 22 24 21 18 28 32 35 34 38 42 37 31 24 41 39 34 19 17 17 20 6 15
49 34 30 24 19 19 19 32 32 26 24 21 20 21 20 23 22 20 21 22 21 22 23 21 26 16 23 22 34 37 48 38 40 35 41 33 23 44 29 29 25 24 27 11 10
39 36 30 19 17 18 27 40 30 28 23 26 29 23 25 25 25 26 23 23 25 23 22 25 30 21 19 25 30 44 37 46 48 53 49 39 39 30 27 28 28 22 21 11 7
34 34 19 16 16 23 40 40 36 42 43 34 32 33 33 31 31 29 32 30 22 25 24 26 29 27 20 25 28 32 48 45 49 50 50 48 40 23 21 20 22 18 13 15 8
33 38 16 16 30 29 41 38 38 43 42 42 42 42 41 39 41 37 30 33 24 26 27 24 27 30 30 25 24 34 40 49 48 51 52 54 47 19 15 15 21 25 26 8 7
35 38 28 19 42 39 38 41 38 42 46 47 45 49 47 48 41 40 33 29 23 26 29 23 31 32 32 30 25 28 35 38 51 46 53 53 50 47 15 21 14 21 31 33 14
33 37 28 23 29 36 39 40 38 37 42 45 49 47 51 52 46 43 40 31 23 27 27 27 31 35 34 31 27 28 33 42 43 54 51 57 49 43 42 25 26 22 24 23 19
26 32 30 35 31 32 34 35 37 40 39 43 46 51 50 50 47 45 43 37 38 32 36 33 37 36 36 40 28 29 28 38 48 47 57 52 50 44 43 34 28 25 31 31 28
26 29 28 33 35 39 37 36 37 42 38 43 40 43 48 50 46 46 44 40 35 32 34 32 38 36 39 33 38 39 32 32 37 47 56 55 59 46 49 51 35 33 34 36 36
22 24 25 29 33 34 35 41 42 38 40 41 31 36 37 29 34 36 38 43 41 35 32 35 34 36 40 35 33 39 37 36 38 37 39 51 60 51 52 48 45 45 46 43 42
Wind_Direction
299 295 293 296 300 301 299 295 291 294 295 290 288 284 285 278 268 176 211 231 245 239 235 230 211 209 206 198 202 219 197 170 109 29 63 62 55 46 23 70 80 301 76 110 110
308 305 300 294 293 294 296 294 291 287 289 291 289 286 285 285 255 229 233 272 249 243 233 225 188 204 192 193 196 164 231 187 335 24 99 51 56 60 75 84 79 42 87 113 118
309 306 302 299 291 285 284 288 288 286 284 283 290 288 285 284 250 205 313 307 262 242 215 221 218 197 188 194 191 197 136 203 335 309 15 59 57 57 68 72 97 95 110 123 126
309 306 303 299 296 290 284 279 275 280 280 279 279 290 285 293 294 335 326 342 320 242 195 185 197 179 185 186 192 203 224 282 300 1 249 82 77 61 18 55 90 105 119 131 133
310 307 302 299 295 291 287 284 277 269 268 272 273 284 303 301 227 329 322 308 313 191 183 186 186 187 186 186 191 191 223 253 300 45 102 97 87 64 26 343 79 101 124 139 139
312 307 303 298 295 291 288 284 278 271 261 249 243 327 334 285 266 332 294 329 115 169 191 203 186 204 219 202 216 228 240 248 275 52 86 112 97 37 54 11 84 107 129 145 152
316 311 306 300 296 291 288 284 279 271 261 238 142 25 330 211 329 312 293 291 289 154 187 202 223 184 204 217 215 229 227 145 20 71 81 126 105 143 103 79 103 120 136 150 160
316 313 308 303 298 292 287 282 277 269 324 350 22 18 324 336 113 158 286 264 265 257 212 230 233 205 205 210 220 196 196 190 73 96 46 172 127 122 102 122 117 140 156 158 167
318 314 310 305 302 297 290 280 271 342 345 4 3 355 328 8 11 136 163 277 267 267 260 240 215 191 197 197 198 178 179 191 117 132 81 189 194 115 106 135 139 155 166 170 170
320 317 315 307 303 300 295 281 340 348 360 354 333 335 318 359 38 33 49 163 261 259 256 228 189 183 188 183 182 173 177 174 147 154 154 186 273 89 110 144 146 153 166 175 177
317 316 314 308 305 301 311 344 345 348 335 292 339 341 1 40 14 3 59 144 208 246 241 216 206 189 185 186 186 186 173 213 256 157 162 161 221 308 90 163 161 154 167 169 177
318 318 314 309 303 300 331 333 336 327 316 254 227 222 215 306 311 278 83 171 225 241 242 242 209 193 188 189 189 196 197 183 268 166 165 162 171 187 149 172 176 167 168 175 175
317 318 316 310 300 320 326 329 336 325 323 311 230 221 223 216 216 220 186 190 210 232 225 238 242 221 214 205 204 197 198 188 177 165 244 246 211 213 263 175 174 174 172 172 177
317 316 318 313 319 319 325 334 325 328 320 312 314 301 240 241 271 206 197 199 223 228 228 251 253 234 239 234 213 215 193 211 227 238 246 236 222 192 233 184 187 176 176 175 174
316 312 315 314 314 316 320 320 321 323 311 337 333 350 254 205 332 243 185 193 216 232 249 237 244 240 236 212 209 229 213 219 258 239 211 239 228 233 195 208 190 187 182 180 178
313 311 310 314 314 310 310 314 313 301 287 299 296 290 248 231 279 314 221 198 206 251 242 235 233 240 252 247 247 246 254 256 258 257 243 245 250 220 247 261 264 221 197 193 190
313 307 305 304 307 320 314 307 292 277 307 286 278 267 252 252 257 261 245 215 215 224 246 249 229 249 248 247 245 243 244 247 246 249 233 257 245 239 232 263 254 274 227 201 188
316 306 310 302 298 299 298 285 277 285 250 306 274 263 249 259 260 255 259 241 224 242 261 254 256 224 242 244 243 236 234 242 246 252 255 255 251 208 252 267 272 276 283 272 179
315 319 311 304 296 284 273 264 272 269 284 271 277 266 250 255 264 258 252 252 236 228 250 256 260 264 230 244 246 241 239 244 252 258 256 257 253 241 261 260 265 275 275 284 185
324 317 308 302 296 277 265 258 272 263 285 278 261 262 257 251 253 263 254 255 252 237 241 263 270 255 244 247 254 244 244 239 244 246 248 254 256 258 254 261 264 269 277 281 225
323 313 322 316 297 275 265 267 267 269 270 271 269 262 258 259 253 254 260 263 256 249 241 252 262 267 249 224 236 245 243 242 246 247 250 252 257 254 264 264 256 258 254 275 257
318 304 328 321 290 282 273 271 272 270 269 263 263 264 261 260 257 259 252 260 256 252 238 240 257 258 261 252 247 250 247 242 244 244 249 253 254 262 250 260 262 260 256 264 251
310 304 308 299 287 283 279 275 270 268 264 261 259 255 258 256 257 254 255 260 262 255 251 234 249 255 257 259 249 236 245 241 245 248 247 249 251 240 251 265 234 257 261 259 279
313 305 306 287 293 286 283 278 275 272 265 263 259 257 252 253 253 254 252 252 250 253 259 259 250 246 252 256 260 245 247 248 247 246 249 249 252 251 253 265 263 265 262 264 280
314 304 310 295 291 299 293 286 274 274 273 262 259 253 251 250 250 250 251 252 251 252 252 252 251 252 253 259 261 255 248 251 249 250 248 251 252 253 252 255 260 258 260 263 269
314 315 311 297 294 288 281 278 275 268 269 261 266 254 251 250 248 249 247 245 246 245 245 243 249 252 253 256 257 259 260 251 254 255 254 253 253 255 253 244 261 256 255 258 265
315 312 311 306 295 286 280 270 276 272 259 254 269 260 249 261 267 260 257 246 243 244 242 240 245 246 251 254 259 257 256 261 261 256 256 255 253 256 255 256 257 254 253 260 263